Nagpur Sonegaon, India

12:33 PM IST on July 27, 2016 (GMT +0530)
Nagpur

Weather History for VANP - May, 2012

Change the Weather History Date:

Thursday, May 3, 2012

  Actual Average Record
Temperature  
Mean Temperature 92 °F -  
Max Temperature 109 °F 107 °F - ()
Min Temperature 75 °F 82 °F - ()
Cooling Degree Days 27    
Growing Degree Days 42 (Base 50)    
Moisture  
Dew Point 41 °F    
Average Humidity 16    
Maximum Humidity 47    
Minimum Humidity 6    
Precipitation  
Precipitation 0.00 in 0.04 in - ()
Sea Level Pressure  
Sea Level Pressure 29.64 in    
Wind  
Wind Speed 5 mph ()    
Max Wind Speed 16 mph    
Max Gust Speed -    
Visibility 3.1 miles    
Events      
T = Trace of Precipitation, MM = Missing Value Source: Averaged Metar Reports

Daily Weather History Graph

Daily Weather History Graph

Search for Another Location

Airport or City:

Trip Planner

Search our weather history database for the weather conditions in past years. The results will help you decide how hot, cold, wet, or windy it might be!

Date:

Astronomy

May. 03, 2012 Rise Set
Actual Time 5:41 AM IST 6:39 PM IST
Civil Twilight 5:18 AM IST 7:02 PM IST
Nautical Twilight 4:51 AM IST 7:30 PM IST
Astronomical Twilight 4:23 AM IST 7:58 PM IST
Moon 3:48 PM IST (5/3) 3:05 AM IST (5/3)
Length of Visible Light 13h 44m
Length of Day
12h 57m
Waxing Gibbous, 88% of the Moon is Illuminated
May 3
Waxing Gibbous
May 6
Full
May 13
Last Quarter
May 21
New
May 29
First Quarter

Hourly Weather History & Observations

Time (IST) Temp. Dew Point Humidity Pressure Visibility Wind Dir Wind Speed Gust Speed Precip Events Conditions
12:10 AM 87.8 °F 35.6 °F 16% 29.68 in 3.1 mi NNW 3.5 mph - N/A   Haze
1:10 AM 87.8 °F 35.6 °F 16% 29.65 in 3.1 mi NNE 2.3 mph - N/A   Haze
2:10 AM 86.0 °F 37.4 °F 18% 29.65 in 3.1 mi Calm Calm - N/A   Haze
2:30 AM 80 °F 61 °F 42% 29.60 in 2 mi NW 2.3 mph - -   Haze
3:10 AM 84.2 °F 33.8 °F 16% 29.65 in 3.1 mi NW 3.5 mph - N/A   Haze
4:10 AM 84.2 °F 33.8 °F 16% 29.65 in 3.1 mi NW 2.3 mph - N/A   Haze
5:10 AM 78.8 °F 33.8 °F 20% 29.65 in 3.1 mi West 3.5 mph - N/A   Haze
5:30 AM 76 °F 60 °F 47% 29.62 in 2 mi WNW 3.5 mph - -   Haze
5:40 AM 78.8 °F 35.6 °F 21% 29.65 in 3.1 mi WNW 3.5 mph - N/A   Haze
6:10 AM 80.6 °F 35.6 °F 20% 29.68 in 3.1 mi WNW 4.6 mph - N/A   Haze
6:40 AM 84.2 °F 37.4 °F 19% 29.68 in 3.1 mi WNW 6.9 mph - N/A   Haze
7:10 AM 87.8 °F 41.0 °F 19% 29.68 in 3.1 mi NW 9.2 mph - N/A   Haze
7:40 AM 89.6 °F 41.0 °F 18% 29.68 in 3.1 mi NW 9.2 mph - N/A   Haze
8:10 AM 93.2 °F 39.2 °F 15% 29.71 in 3.1 mi NNW 10.4 mph - N/A   Haze
8:30 AM 94 °F 69 °F 34% 29.65 in 2 mi NNW 10.4 mph - -  
9:10 AM 98.6 °F 39.2 °F 13% 29.71 in 3.7 mi NNW 9.2 mph - N/A   Unknown
9:40 AM 102.2 °F 35.6 °F 10% 29.71 in 3.7 mi North 9.2 mph - N/A   Unknown
10:10 AM 105.8 °F 33.8 °F 8% 29.71 in 3.7 mi North 9.2 mph - N/A   Unknown
10:40 AM 105.8 °F 33.8 °F 8% 29.71 in 3.7 mi NNW 11.5 mph - N/A   Unknown
11:10 AM 109.4 °F 37.4 °F 9% 29.71 in 3.7 mi NW 11.5 mph - N/A   Unknown
11:30 AM 106 °F 76 °F 29% 29.61 in 2 mi NNW 10.4 mph - -  
11:40 AM 109.4 °F 37.4 °F 9% 29.68 in 3.7 mi North 6.9 mph - N/A   Unknown
12:10 PM 109.4 °F 39.2 °F 9% 29.68 in 3.7 mi West 9.2 mph - N/A   Unknown
12:40 PM 111.2 °F 37.4 °F 8% 29.68 in 3.7 mi NW 16.1 mph - N/A   Unknown
1:10 PM 109.4 °F 37.4 °F 9% 29.65 in 3.7 mi NNW 10.4 mph - N/A   Unknown
1:40 PM 111.2 °F 32.0 °F 7% 29.65 in 3.7 mi NW 12.7 mph - N/A   Partly Cloudy
2:10 PM 111.2 °F 28.4 °F 6% 29.62 in 3.7 mi NW 10.4 mph - N/A   Partly Cloudy
2:30 PM 108 °F 76 °F 28% 29.52 in 0 mi NW 10.4 mph - -   Scattered Clouds
2:40 PM 111.2 °F 28.4 °F 6% 29.62 in 3.7 mi NW 10.4 mph - N/A   Partly Cloudy
3:10 PM 113.0 °F 33.8 °F 7% 29.59 in 3.7 mi NNW 6.9 mph - N/A   Partly Cloudy
3:40 PM 111.2 °F 35.6 °F 8% 29.59 in 3.7 mi NNW 6.9 mph - N/A   Partly Cloudy
4:10 PM 113.0 °F 33.8 °F 7% 29.59 in 3.7 mi North 5.8 mph - N/A   Partly Cloudy
4:40 PM 111.2 °F 37.4 °F 8% 29.59 in 3.7 mi North 6.9 mph - N/A   Partly Cloudy
5:10 PM 109.4 °F 35.6 °F 8% 29.59 in 3.7 mi NNW 5.8 mph - N/A   Partly Cloudy
5:30 PM 104 °F 75 °F 31% 29.49 in 2 mi NNE 5.8 mph - -   Scattered Clouds
5:40 PM 109.4 °F 35.6 °F 8% 29.59 in 3.7 mi North 5.8 mph - N/A   Partly Cloudy
6:10 PM 107.6 °F 33.8 °F 8% 29.59 in 3.7 mi NW 9.2 mph - N/A   Unknown
6:40 PM 105.8 °F 32.0 °F 8% 29.59 in 3.1 mi NW 10.4 mph - N/A   Unknown
7:10 PM 102.2 °F 33.8 °F 9% 29.59 in 3.1 mi NW 6.9 mph - N/A   Haze
7:40 PM - - N/A% - 3.1 mi NW 4.6 mph - N/A   Haze
8:10 PM 98.6 °F 33.8 °F 10% 29.62 in 3.1 mi NW 4.6 mph - N/A   Haze
8:30 PM 95 °F 68 °F 31% 29.57 in 2 mi NNW 2.3 mph - -   Haze
8:40 PM 98.6 °F 33.8 °F 10% 29.65 in 3.1 mi North 2.3 mph - N/A   Haze
9:10 PM 96.8 °F 32.0 °F 10% 29.65 in 3.1 mi NNW 4.6 mph - N/A   Haze
9:40 PM 93.2 °F 32.0 °F 11% 29.65 in 3.1 mi NNW 2.3 mph - N/A   Haze
10:10 PM 91.4 °F 32.0 °F 12% - 3.1 mi Calm Calm - N/A   Haze
11:30 PM 84 °F 65 °F 43% 29.60 in 2 mi Calm Calm - -   Haze
11:40 PM 84.2 °F 35.6 °F 18% 29.65 in 3.1 mi Calm Calm - N/A   Haze